Batumi International Airport
UGSB : rendu visible

Aérodrome :











RETROUVEZ-NOUS SUR...

 
LOGIN :

S'inscrire | Disclaimer

   EN    FR    IT 

 









Légende :    VFR   VFR Marginal   IFR   IFR Intensif   IFR Très Intensif
Visi : 
Plafond : 
>= 8 km
>= 3000ft
5 à 8 km
1000 à 3000 ft
1500m à 5 km
500 à 1000 ft
800 à 1500m
200 à 500 ft
< 800m
< 200 ft
Symboles :   Orages  Brouillard  Fortes neiges  Fortes précipitations  Vent > 20 kt







- Altitude de l'aérodrome : 105 ft
- Code IATA : BUS


UGSB - Batumi International

DERNIER METAR :
  • 170130Z AUTO 14018KT CAVOK 11/M00 Q1020 R13/70D NOSIG

METARs EXPIRÉS :
  • 170100Z 14014KT CAVOK 11/M00 Q1020 R13/70D NOSIG
  • 170030Z 13019KT CAVOK 12/M00 Q1020 R13/70D NOSIG
  • 170000Z 13020KT CAVOK 12/M01 Q1020 R13/70D NOSIG
  • 162300Z 14019KT CAVOK 11/00 Q1020 R13/70D NOSIG

TAF TAF UGSB
Valide du 17 à 00h jusqu'au 18 à 00h UTC


162300Z 1700/1724 13023KT CAVOK TX18/1711Z TN09/1701Z
BECMG 1707/1708 12013KT
TEMPO 1709/1714 01007KT
FIR UGGG / Asie



MET'MAP, la Météo Aéronautique d'un coup d'oeil ! - Copyright ORBIFLY Décembre 2007 - Disclaimer

ORBIFLY MET'MAP TEAM :

Programmation & Développement : Alexandra Zaïnal
Conception & Développement : Baudouin d'Aumeries
Co-Programmation & Développement : Marc-Olivier Méhu
Soutien technique & logistique : Manuel Goepfert

Contact : metmap@orbifly.com




SOURCES & CREDITS :

   NOAA       Earth
Advisory